Location: Poughquag
(41.6090°N, 73.6820°W)
Time: 19:20:40
(UTC-05:00)

A-11 Canister half - Pass Details

Date: 07 December 2023
Orbit: 1526 x 1682 km, 47.3° (Epoch: 23 February)

Event Time Altitude Azimuth Distance (km) Brightness Sun altitude
Rises 20:20:33 0° 266° (W) 4,930 12.4 -43.3°
Reaches altitude 10° 20:23:47 10° 270° (W) 3,943 11.7 -43.9°
Enters shadow 20:31:36 54° 301° (WNW) 1,974 9.6 -45.4°
